Probability
0 0 0 0 0 0 0 0 0 0 0 0 0 0 1 2 1 0 1 4 6 8 7 7 6 5 5 7 8 7 6 5 4 2 1 0 1 2 2 3 3 3 2
0 0 0 0 0 0 0 0 0 0 0 0 0 0 1 2 1 0 1 3 6 8 9 7 6 5 5 6 6 6 6 6 5 4 2 1 0 1 1 2 3 3 3
0 0 0 0 0 0 0 0 0 0 0 0 0 0 1 2 1 0 1 3 5 7 9 9 8 7 7 6 6 6 7 8 7 5 4 3 2 1 1 2 2 2 3
0 0 0 0 0 0 0 0 0 0 0 0 0 0 1 1 1 0 1 3 4 5 7 9 10 10 10 9 7 7 8 9 8 6 6 5 4 2 2 2 2 2 3
0 0 0 0 0 0 0 0 0 0 0 0 0 0 0 0 0 1 2 3 3 3 5 7 9 9 9 9 8 7 8 8 6 5 5 5 4 2 2 2 2 2 2
1 0 0 0 0 0 0 0 0 0 0 0 1 0 0 0 0 1 2 3 3 3 3 4 5 5 5 7 8 8 7 6 5 4 4 4 3 2 1 1 1 1 1
2 1 0 0 0 0 0 0 0 0 0 0 0 0 0 0 0 1 1 2 3 3 3 3 2 1 2 3 5 6 6 5 3 3 3 3 3 3 1 1 0 0 0
3 2 1 1 1 1 1 1 1 1 1 0 0 0 0 0 0 1 1 1 2 3 2 1 1 0 0 1 2 3 4 3 3 3 3 2 3 3 3 2 1 1 0
3 3 3 2 2 2 2 2 2 2 2 1 0 0 0 0 0 0 0 0 1 2 1 1 1 0 0 0 0 1 2 2 3 3 3 2 3 3 3 2 2 2 1
3 3 3 3 3 3 3 3 3 3 3 1 1 1 0 0 0 0 0 0 0 0 0 0 0 0 0 0 0 0 1 2 3 4 2 1 2 2 1 1 2 2 2
2 3 3 3 3 3 3 3 3 3 3 3 2 2 1 0 0 0 0 0 0 0 0 0 0 0 0 0 0 0 0 1 2 3 2 0 1 1 1 0 1 1 1
3 3 3 3 3 3 3 3 3 3 3 3 3 3 2 1 0 0 0 0 0 0 0 0 0 0 0 0 0 0 0 1 1 3 3 2 1 0 0 0 0 0 0
2 3 3 3 2 3 3 3 3 3 3 3 3 3 3 2 1 0 0 0 0 0 0 0 0 0 0 0 0 0 0 0 1 2 3 3 2 1 1 1 0 0 0
2 2 2 2 2 2 3 3 3 3 3 3 3 3 3 3 2 1 0 0 0 0 0 0 0 0 0 0 0 0 0 0 0 1 3 3 2 1 1 1 0 0 0
2 2 2 2 2 2 3 3 3 3 3 3 3 3 3 3 3 1 0 0 0 0 0 0 0 0 0 0 0 0 0 1 0 1 2 2 1 1 1 1 0 0 0
2 2 2 1 1 1 3 3 3 3 4 4 3 3 3 3 3 2 1 0 0 0 0 0 0 0 0 0 0 0 0 0 0 1 1 1 0 0 0 0 0 0 0
4 4 4 3 1 2 3 4 3 4 4 4 4 3 4 3 3 3 2 1 0 0 0 0 0 0 0 0 0 0 0 0 0 0 0 0 0 0 0 0 0 0 0
8 7 7 6 4 3 4 4 4 3 4 4 3 4 4 3 2 2 2 1 0 0 0 0 0 0 0 0 0 0 0 0 0 0 0 0 0 0 0 0 0 0 0
11 9 8 7 5 4 4 4 3 3 3 3 3 4 3 2 1 1 1 0 0 0 0 0 0 0 0 0 0 0 0 0 0 0 0 0 0 0 0 0 0 0 0
10 8 6 6 5 4 4 4 4 4 4 4 4 5 4 2 1 0 0 1 1 1 0 0 0 0 0 0 0 0 0 0 0 1 1 1 0 0 0 0 0 0 0
9 7 5 4 5 5 5 5 5 6 6 6 6 5 4 4 3 2 1 1 2 2 1 1 0 0 0 0 0 0 0 0 0 2 2 1 0 0 0 0 0 0 0
10 9 7 6 6 5 4 4 5 6 6 6 5 4 4 4 5 3 1 1 2 2 2 2 1 0 0 0 0 0 0 0 0 1 1 1 0 0 0 0 0 0 0
13 12 10 9 8 5 2 1 3 3 4 3 3 3 3 4 4 3 2 1 2 2 2 2 1 0 0 0 0 0 0 0 0 0 0 0 0 1 1 1 0 0 0
14 14 13 12 9 5 1 0 1 2 2 2 2 2 3 3 3 2 2 2 3 3 2 1 0 0 0 0 0 0 0 0 0 0 0 0 0 1 1 1 0 0 0
13 14 14 12 8 4 1 0 1 1 3 3 3 3 3 3 1 1 1 1 1 1 1 0 0 0 0 0 0 0 0 0 0 0 0 0 0 0 0 0 0 0 0
13 13 12 10 7 3 1 0 1 2 4 5 4 3 3 2 1 0 0 0 0 0 0 0 0 0 0 0 0 0 0 0 0 0 0 0 0 0 0 0 0 0 0
Wind_Speed
2 2 1 1 1 1 1 1 2 2 3 4 4 4 4 3 3 3 3 9 9 9 10 10 11 11 10 10 10 10 9 9 9 9 8 8 7 8 8 8 8 8 8
2 2 2 2 2 2 1 2 2 2 2 3 4 4 4 3 3 3 3 5 8 9 9 9 9 10 10 10 10 9 9 9 9 8 8 8 7 8 8 8 8 8 8
3 3 2 2 2 2 2 2 3 3 3 3 4 4 3 3 4 3 3 2 4 7 9 9 8 9 9 9 10 10 9 9 9 8 8 8 7 7 7 8 8 8 8
3 3 2 2 2 2 2 2 3 3 3 3 3 2 3 3 3 3 3 3 2 3 5 8 7 7 8 9 8 9 9 9 9 8 8 8 7 7 7 7 7 8 8
3 3 2 2 2 2 2 3 3 3 3 3 2 2 2 2 2 3 3 3 2 2 2 5 7 7 7 8 8 8 8 9 9 9 9 8 8 7 6 7 6 7 8
3 3 2 2 3 3 3 3 3 3 2 2 3 3 2 2 2 2 2 2 2 3 3 3 3 4 6 6 6 7 8 9 9 9 9 9 8 8 7 7 7 7 7
3 3 3 3 3 3 3 3 3 3 3 2 3 3 3 3 3 2 2 2 2 2 3 2 2 2 2 4 5 6 7 8 9 9 9 8 8 7 7 8 7 7 7
3 3 3 3 3 3 4 3 3 3 2 2 2 3 3 3 3 2 2 2 2 2 2 3 3 2 2 1 3 6 6 7 8 9 9 8 8 8 7 7 7 7 7
3 3 4 3 3 3 2 2 2 3 2 1 1 2 2 1 1 2 1 1 1 1 1 2 3 3 3 2 2 4 6 6 8 9 9 9 8 8 7 7 7 7 7
3 3 3 3 3 2 2 1 2 1 2 1 1 1 2 3 2 0 2 1 0 1 1 2 3 3 3 2 2 3 5 5 6 7 7 8 8 8 7 7 7 7 7
2 3 3 3 3 2 2 2 2 2 1 1 1 1 1 2 2 2 0 1 1 1 0 1 2 2 2 2 2 3 5 5 5 6 6 6 7 8 8 7 7 7 7
1 2 2 2 2 1 1 1 1 2 1 1 1 1 2 1 1 1 1 1 0 1 1 0 1 1 1 2 3 4 5 4 4 4 5 6 6 6 7 7 7 7 7
1 0 1 1 1 1 1 1 1 1 1 1 1 1 1 1 1 2 2 1 0 1 1 1 0 0 1 1 1 3 4 4 4 4 5 5 6 7 7 6 6 5 5
1 1 1 1 1 1 1 1 1 1 1 1 1 1 1 0 1 2 2 2 1 1 1 1 1 1 1 1 2 3 2 4 4 4 4 5 5 5 5 5 5 4 4
1 1 1 2 1 1 1 1 1 1 1 1 1 1 1 1 1 1 1 2 3 2 1 1 1 1 1 1 1 2 2 3 4 5 5 5 5 5 5 5 4 4 3
2 2 2 2 1 1 1 1 1 1 1 1 1 1 1 1 1 1 1 1 1 3 2 2 2 1 1 1 1 1 2 3 5 5 5 5 5 5 6 5 5 4 4
2 2 1 2 1 1 1 1 1 1 1 1 1 1 1 1 1 1 1 1 1 2 2 1 1 0 1 0 1 1 1 1 2 5 5 5 5 5 5 5 5 5 4
2 2 2 2 1 1 1 1 1 1 1 1 1 2 2 1 2 1 1 1 1 1 2 1 1 1 1 1 0 1 1 1 2 3 5 5 5 5 5 5 5 5 5
2 2 2 2 1 1 1 0 0 0 0 0 0 1 1 1 1 1 2 1 1 2 2 2 0 1 1 1 1 1 1 1 1 1 3 4 5 5 5 5 5 5 5
2 2 2 1 1 1 1 0 0 0 0 0 0 0 1 1 1 1 1 1 2 2 2 1 0 1 1 1 0 0 1 1 1 1 1 2 4 5 6 6 6 6 6
3 3 2 1 1 1 0 1 1 0 0 0 1 0 0 1 2 2 1 1 2 1 1 1 0 0 1 1 1 1 1 1 2 1 1 2 2 2 3 5 6 7 7
2 2 2 2 1 0 1 2 2 1 0 0 0 1 1 1 1 2 1 2 3 3 2 1 1 1 2 2 1 1 1 0 2 2 1 3 2 3 3 4 6 7 7
2 2 1 1 0 0 2 1 2 1 1 1 1 0 1 1 1 1 1 2 1 1 3 3 3 3 3 3 2 1 1 2 3 3 1 2 2 3 3 4 6 7 7
2 2 1 1 0 1 2 2 3 1 1 0 1 1 1 0 0 1 1 1 2 2 2 2 4 4 4 3 3 3 3 2 2 2 2 2 2 2 3 2 4 6 6
2 2 2 2 1 1 2 2 2 1 1 1 1 0 1 1 1 2 2 1 2 3 3 2 3 3 4 4 2 1 0 0 1 2 1 2 1 1 1 2 3 4 5
2 2 1 1 1 1 1 1 3 2 1 0 1 1 0 0 1 1 1 0 1 3 3 3 3 3 2 2 2 2 3 2 1 2 2 1 1 0 1 2 1 1 2
Wind_Direction
87 81 74 71 62 56 52 39 79 92 109 127 134 140 142 142 151 155 158 164 163 164 169 174 173 171 173 179 185 189 186 187 187 186 188 190 192 188 186 187 186 184 184
98 91 75 60 54 52 57 60 77 90 107 125 129 133 134 132 131 134 144 162 162 162 163 167 171 175 180 185 188 191 190 189 188 187 186 188 192 190 188 189 189 187 188
95 92 83 65 52 54 49 52 63 74 83 105 113 115 119 122 130 130 141 149 161 163 163 165 169 176 181 184 188 191 190 187 187 186 186 188 188 187 187 191 192 191 187
93 91 83 63 45 48 52 59 64 68 68 86 100 109 112 119 128 136 139 146 150 160 164 164 168 176 178 182 189 190 189 189 184 184 183 185 183 180 180 183 184 183 185
85 90 79 61 59 60 53 58 60 74 81 83 98 100 100 111 127 132 139 146 152 157 164 169 169 172 178 182 184 188 190 188 187 188 186 183 180 177 176 176 177 182 185
84 86 82 59 64 68 55 54 60 60 76 81 92 82 79 95 108 121 138 137 151 161 157 160 162 168 170 171 182 185 184 186 188 188 188 188 187 183 180 179 180 183 187
78 80 75 60 60 67 61 62 67 65 55 58 74 59 43 50 79 92 99 119 140 155 142 147 156 154 170 175 183 187 191 191 188 187 187 188 187 185 189 192 190 187 189
72 80 70 64 61 69 56 53 69 66 58 55 88 83 50 21 23 61 89 114 123 132 148 159 158 155 171 175 191 197 203 201 194 192 190 189 190 188 189 188 190 193 197
69 71 73 76 70 74 69 54 63 85 84 20 66 113 117 152 344 5 45 84 111 129 143 166 168 175 182 182 197 204 199 198 196 195 194 193 191 189 192 194 195 197 200
69 75 78 76 73 72 79 73 70 75 104 81 12 52 125 148 136 40 350 4 24 130 168 169 175 188 192 186 181 186 189 186 190 195 195 196 193 189 192 196 200 204 205
61 73 80 79 75 70 67 55 53 61 89 118 104 74 66 56 88 130 184 339 353 323 206 178 189 191 191 182 185 188 184 184 190 196 199 197 195 194 193 197 201 207 205
55 61 85 84 89 82 73 62 64 72 74 79 77 104 124 131 147 135 159 196 277 305 326 225 182 192 193 189 195 179 180 185 188 193 195 193 188 187 190 196 201 205 205
82 74 95 96 87 75 78 66 66 46 47 69 82 95 125 164 164 151 142 157 197 302 330 336 307 207 166 161 207 186 190 193 190 190 180 180 184 187 188 191 196 200 199
157 140 113 105 81 69 62 53 53 25 42 52 49 79 96 45 134 147 153 145 123 341 334 292 317 260 221 192 196 190 204 198 197 189 183 184 186 187 188 189 195 195 191
126 97 103 107 95 82 72 77 55 7 38 33 11 38 55 18 75 129 141 151 149 162 253 274 288 273 248 205 203 206 208 198 193 187 186 187 186 187 188 185 184 177 176
114 105 96 99 91 80 77 77 45 15 53 18 33 57 31 2 36 48 108 117 140 156 190 248 243 254 230 180 164 216 219 194 192 188 190 191 190 186 189 186 179 175 176
131 138 133 112 99 82 73 70 42 41 51 23 21 57 26 30 45 22 62 84 93 128 154 271 284 319 50 19 331 274 225 222 214 196 194 193 192 189 186 183 182 183 185
158 152 126 106 105 93 73 76 43 31 62 43 11 38 6 28 44 36 61 63 71 113 144 155 319 347 328 259 250 249 229 217 230 207 194 189 190 191 194 196 199 200 200
144 135 123 126 129 125 98 85 139 25 46 98 58 69 22 63 50 50 66 71 67 63 93 134 232 291 300 317 347 325 296 286 245 215 194 200 205 207 210 209 209 211 208
146 143 139 147 157 149 116 76 98 51 1 3 61 139 122 128 147 127 95 92 93 73 72 98 193 296 299 305 11 325 322 315 277 262 222 215 217 218 224 220 216 213 211
155 151 141 156 185 166 160 139 139 108 89 52 8 335 172 124 115 126 130 144 126 117 110 108 226 318 303 317 278 257 250 280 280 254 236 243 225 229 237 236 226 219 215
140 138 147 169 192 211 67 95 122 146 145 133 321 327 350 25 31 53 80 136 155 160 175 184 223 224 249 246 257 257 227 291 286 272 204 252 213 228 232 228 226 218 216
142 142 157 143 174 345 48 54 83 111 150 181 211 281 335 18 34 46 40 38 16 217 195 186 198 226 230 231 229 264 236 219 235 244 186 254 241 236 242 236 226 215 214
162 171 171 170 138 344 31 49 74 75 91 311 221 188 177 316 44 92 67 8 324 303 271 213 206 226 234 229 212 216 227 253 273 268 176 223 247 244 254 245 233 214 214
178 188 179 171 172 302 351 40 83 99 75 8 351 130 155 162 31 74 90 33 326 311 299 300 266 255 257 260 237 177 249 108 291 286 237 188 236 251 263 256 248 225 221
186 181 169 172 187 269 315 66 99 121 106 9 350 352 11 30 23 79 127 168 284 288 311 322 320 316 302 295 294 203 195 197 227 269 256 183 217 174 289 274 254 241 234